{"data":{"norad_id":61588,"epoch":"2026-05-25T04:11:30.581664Z","epoch_age_seconds":57188,"freshness":"FRESH","line1":"1 61588U 24187Q   26145.17465951  .00000633  00000+0  29871-4 0  9998","line2":"2 61588  53.1603  69.0739 0001253  91.0267 269.0879 15.34387711 90806","mean_motion":15.34387711,"eccentricity":0.0001253,"inclination_deg":53.1603,"raan_deg":69.0739,"arg_perigee_deg":91.0267,"mean_anomaly_deg":269.0879,"bstar":2.9871e-5,"rev_number":9080,"period_min":93.848509713462,"perigee_km":461.8826040899,"apogee_km":463.59692780745,"semimajor_km":6840.8767659487,"source":"CELESTRAK","updated_at":"2026-05-25T13:38:19.404765Z"}}